Starlink 11432

operational
NORAD ID: 62882 Int'l Des: 2025-024 Owner: SPXS Country: US Constellation: starlink
LEOCIRCULAR

About Starlink 11432

Description loading...

Live Position

Loading 3D Globe...

Upcoming Passes

Altitude History

Altitude vs Time

uPlot chart will show altitude changes over time

Two-Line Element Set

1 62882U 25024D 25350.96479400 .00173645 00000-0 13267-2 0 9990
2 62882 43.0017 320.3184 0001515 250.6007 109.4697 15.70875456 50454
Epoch: Dec 16, 2025 • Age: 8 hours

Current Status

Altitude 357.4 km
Velocity 7.70 km/s
Sub-Earth Point 31.35°N, 98.49°W
Launch Date Feb 4, 2025
Age 0.8 years
Type internet

Technical Details

Classification Payload
Mass 960.00 kg
Dry Mass 910.00 kg
Total Mass 960.00 kg
Length 0.30 m
Diameter 4.10 m
Span 29.00 m
Shape Box + pan
Manufacturer SPXS
Bus Type Starlink V2MD
Phase Status In Orbit
Owner/State SPXS/US

Large Constellations

Loading constellations...